Flag for Poland Weather past 2 weeks in Szczecin, Poland

Now
43 °F

Clear.


Feels Like: 40 °F
Forecast: 39 / 72 °F
Wind: 5 mph from Northeast

Location: Szczecin Airport


UV Index: 3 (Moderate)

Visibility: 10 mi


Pressure: 30.01 "Hg

Humidity: 93%

Dew point: 41 °F

Location of SzczecinLocation

Historic Weather in Szczecin

°F

Szczecin temperature yesterday

Maximum temperature yesterday: 57 °F (at 2:00 PM)
Minimum temperature yesterday: 30 °F (at 4:30 AM)
Average temperature yesterday: 45 °F

Past Weeks' High & Low Weather Summary

 TemperatureHumidityPressure
High64 °F (Apr 7, 4:00 PM)100% (Apr 10, 8:00 AM)30.42 "Hg (Apr 10, 8:00 AM)
Low30 °F (Apr 16, 5:00 AM)35% (Apr 16, 11:00 AM)29.59 "Hg (Apr 14, 9:30 AM)
Average47 °F75%29.98 "Hg
* Reported Apr 3 10:00 PM — Apr 18 10:00 PM, Szczecin, Weather by CustomWeather, © 2014

Note: Actual official high and low records may vary slightly from our data, if they occured in-between our weather recording intervals... More about our weather records

Advertising

Historic Weather Conditions — Data for Previous 24 hours

 ConditionsComfort  
Time TempWeatherWind HumidityBarometerVisibility
10:00 PM
Apr 18
43 °FClear.5 mph93%29.98 "Hg10 mi
9:30 PM43 °FClear.5 mph93%29.98 "Hg10 mi
9:00 PM45 °FSunny.3 mph87%29.95 "Hg10 mi
8:30 PM45 °FSunny.5 mph93%29.95 "Hg10 mi
8:00 PM46 °FScattered clouds.5 mph87%29.92 "HgN/A
7:30 PM46 °FPartly sunny.3 mph87%29.92 "HgN/A
7:00 PM46 °FScattered clouds.5 mph87%29.89 "HgN/A
6:30 PM45 °FScattered clouds.6 mph93%29.89 "HgN/A
6:00 PM45 °FSprinkles. Partly sunny.6 mph87%29.86 "HgN/A
5:30 PM46 °FSprinkles. Partly sunny.7 mph82%29.86 "HgN/A
5:00 PM50 °FScattered clouds.3 mph67%29.86 "HgN/A
4:30 PM50 °FPassing clouds.No wind71%29.83 "HgN/A
4:00 PM48 °FScattered clouds.2 mph76%29.83 "HgN/A
3:30 PM48 °FScattered clouds.2 mph76%29.83 "HgN/A
3:00 PM45 °FPartly sunny.5 mph87%29.83 "HgN/A
2:30 PM45 °FSprinkles. Broken clouds.7 mph87%29.80 "Hg5 mi
2:00 PM46 °FSprinkles. Partly sunny.5 mph87%29.80 "Hg5 mi
1:30 PM46 °FSprinkles. Partly sunny.7 mph76%29.80 "HgN/A
1:00 PM48 °FScattered clouds.8 mph76%29.77 "HgN/A
12:30 PM46 °FScattered clouds.3 mph76%29.77 "HgN/A
12:00 PM46 °FPartly sunny.2 mph82%29.77 "HgN/A
11:30 AM46 °FPartly sunny.5 mph82%29.77 "HgN/A
11:00 AM45 °FPartly sunny.5 mph87%29.77 "HgN/A
10:30 AM45 °FPartly sunny.3 mph87%29.74 "HgN/A
10:00 AM45 °FScattered clouds.2 mph87%29.74 "HgN/A
9:30 AM43 °FPartly sunny.3 mph87%29.74 "HgN/A
9:00 AM43 °FLight rain. Partly sunny.2 mph87%29.74 "Hg5 mi
8:30 AM43 °FLight rain. Scattered clouds.2 mph93%29.74 "Hg5 mi
8:00 AM43 °FLight rain. Partly sunny.5 mph87%29.71 "Hg5 mi
7:30 AM43 °FLight rain. Partly sunny.5 mph93%29.71 "Hg5 mi
7:00 AM43 °FLight rain. Fog.8 mph93%29.71 "Hg2 mi
6:30 AM43 °FLight rain. Fog.3 mph87%29.71 "Hg2 mi
6:00 AM41 °FLight rain. Passing clouds.6 mph93%29.71 "Hg4 mi
5:30 AM41 °FLight rain. Passing clouds.3 mph87%29.71 "HgN/A
5:00 AM43 °FLight rain. Passing clouds.5 mph76%29.71 "HgN/A
4:30 AM43 °FClear.5 mph66%29.74 "Hg10 mi
4:00 AM43 °FClear.7 mph66%29.74 "Hg10 mi
3:30 AM43 °FClear.5 mph66%29.74 "Hg10 mi
3:00 AM45 °FClear.5 mph61%29.74 "Hg10 mi
2:30 AM43 °FClear.10 mph39%29.74 "Hg10 mi
2:00 AM43 °FClear.10 mph61%29.77 "Hg10 mi
1:30 AM43 °FClear.10 mph66%29.77 "Hg10 mi
1:00 AM43 °FClear.12 mph66%29.80 "Hg10 mi
12:30 AM43 °FClear.8 mph66%29.83 "Hg10 mi
12:00 AM43 °FClear.7 mph66%29.83 "Hg10 mi
11:30 PM
Apr 17
45 °FClear.9 mph61%29.86 "Hg10 mi
11:00 PM45 °FClear.8 mph61%29.86 "Hg10 mi
Weather by CustomWeather, © 2014

See weather overview